Flag for Germany Weather past 2 weeks in Hoyerswerda, Saxony, Germany

Now
51 °F

Passing clouds.


Feels Like: 49 °F
Forecast: 41 / 59 °F
Wind: 6 mph from Northwest

Location: Cottbus

Current Time: Sep 23, 2014 at 11:15:33 AM

Latest Report: Sep 23, 2014 at 10:00 AM


Visibility: 25 mi

Pressure: 30.07 "Hg

Humidity: 73%

Dew point: 43 °F

Location of HoyerswerdaLocation

Historic Weather in Hoyerswerda — Graph

°F

Hoyerswerda temperature yesterday

Maximum temperature yesterday: 58 °F (at 12:00 PM)
Minimum temperature yesterday: 49 °F (at 9:00 PM)
Average temperature yesterday: 54 °F

Past Weeks' High & Low Weather Summary

 TemperatureHumidityPressure
High78 °F (Sep 15, 4:00 PM)100% (Sep 15, 3:00 AM)30.12 "Hg (Sep 15, 3:00 AM)
Low49 °F (Sep 23, 8:00 AM)42% (Sep 18, 2:00 PM)29.80 "Hg (Sep 22, 2:00 PM)
Average62 °F83%30.00 "Hg
* Reported Sep 8 10:00 AM — Sep 23 10:00 AM, Hoyerswerda, Weather by CustomWeather, © 2014

Note: Actual official high and low records may vary slightly from our data, if they occured in-between our weather recording intervals... More about our weather records

Advertising

Hoyerswerda weather history for previous 24 hours

 ConditionsComfort  
Time TempWeatherWind HumidityBarometerVisibility
10:00 AM
Sep 23
51 °FPassing clouds.6 mph73%30.07 "Hg25 mi
9:00 AM50 °FPassing clouds.6 mph77%30.05 "Hg22 mi
8:00 AM49 °FScattered clouds.5 mph82%30.03 "Hg22 mi
7:00 AM49 °FOvercast.3 mph88%30.00 "Hg16 mi
6:00 AM49 °FDrizzle. Low clouds.3 mph92%29.98 "Hg6 mi
5:00 AM49 °FLow clouds.3 mph95%29.96 "Hg16 mi
4:00 AM50 °FDrizzle. Low clouds.5 mph91%29.96 "Hg7 mi
3:00 AM50 °FLow clouds.5 mph90%29.94 "Hg25 mi
2:00 AM50 °FLow clouds.5 mph92%29.93 "Hg28 mi
1:00 AM50 °FLow clouds.5 mph94%29.92 "Hg22 mi
12:00 AM50 °FLight freezing rain. Low clouds.5 mph95%29.91 "Hg5 mi
11:00 PM
Sep 22
49 °FDrizzle. Low clouds.3 mph97%29.90 "Hg2 mi
10:00 PM50 °FDrizzle. Low clouds.3 mph94%29.89 "Hg11 mi
9:00 PM49 °FLow clouds.3 mph94%29.89 "Hg17 mi
8:00 PM50 °FLow clouds.5 mph86%29.88 "Hg25 mi
7:00 PM52 °FOvercast.3 mph77%29.87 "Hg28 mi
6:00 PM52 °FOvercast.3 mph77%29.85 "Hg28 mi
5:00 PM53 °FOvercast.5 mph69%29.83 "Hg43 mi
4:00 PM55 °FPartly sunny.5 mph67%29.82 "Hg25 mi
3:00 PM53 °FPartly sunny.3 mph82%29.81 "Hg19 mi
2:00 PM58 °FSprinkles. Overcast.7 mph61%29.80 "Hg12 mi
1:00 PM58 °FPartly sunny.7 mph64%29.80 "Hg12 mi
12:00 PM58 °FLow clouds.5 mph66%29.81 "Hg9 mi
11:00 AM57 °FOvercast.6 mph72%29.82 "Hg9 mi
Weather by CustomWeather, © 2014

See weather overviewHow to use our weather pages